Погода в Буффало

США     42°53′09″N   78°52′41″W
темп.,
°C
ветер,
м/с
пор.,
м/с
влажн.,
%
обл.,
%
осадки,
мм/ч
давл.,
гПа
погр.,
м
31 июля, сб
сб3123:00+14с26620 0.0 1018212
02:00+13ссз11690 0.0 101719
05:00+12юз11740 0.0 101814
08:00+14юз12695 0.0 1018187
11:00+19юз33505 0.0 10171072
14:00+21юз344417 0.0 10161343
17:00+21юз455060 0.0 1015769
20:00+19ююз255924 0.0 1014392
1 августа, вс
вс123:00+17ююз266489 0.0 1014161
02:00+17ю247489 0.5 1012119
05:00+16ююз4992100 1.2 1011299
08:00+16ю4994100 3.2 1011316
11:00+19юз51091100 4.4 1010776
14:00+18юз3894100 8.4 1009403
17:00+20з47874 4.7 1008776
20:00+17ссз489555 7.9 1009414
2 августа, пн
пн223:00+15с39945 2.6 1012407
02:00+14ссз29958 2.6 1012314
05:00+13зсз26955 0.0 1014135
08:00+15сз38880 0.0 1016399
11:00+20ссз46540 0.0 10171018
14:00+22ссз45430 0.0 10171763
17:00+22ссз35410 0.0 10171627
20:00+19з226113 0.0 101834
3 августа, вт
вт323:00+17юз22670 0.0 101838
02:00+15ю23750 0.0 101978
05:00+15ю23780 0.0 101868
08:00+17ююз24730 0.0 1019181
11:00+22юз225520 0.0 10191042
14:00+24юз3246100 0.0 10181757
17:00+24юз214525 0.0 10171661
20:00+20ююз1161100 0.0 101713
4 августа, ср
ср423:00+18ююв1163100 0.0 101813
02:00+17ю1173100 0.0 101917
05:00+16ю227697 0.0 101926
08:00+18ю117283 0.0 1020114
11:00+24ююв1150100 0.0 1021738
14:00+27св11401 0.0 10201880
17:00+27св12410 0.0 10191721
20:00+22св24690 0.0 1020175